DLH8WJ EDDN-EDDH

Flight info

Callsign DLH8WJ
Flight time 0h 48m
Altitude 30000
Route ERETO1G ERETO DCT LONLI M726 LASTO M852 LARET/N0443F340 M852 HLZ Z990 DIRBO/N0395F230 T902 RARUP RARUP6A
Aircraft A319/M-SDE3FGHIRWY/LB1

Departure

Time 2026-05-07 13:50
Airport Nuremberg Airport (EDDN)

Arrival

Time 2026-05-07 14:38
Airport Hamburg Helmut Schmidt Airport (EDDH)
Time Latitude Longitude Altitude Speed Heading
2026-05-07 13:18 49.49472 11.08166 1026 ft 0 kts 188°
2026-05-07 13:39 49.49473 11.08166 997 ft 0 kts 188°
2026-05-07 13:39 49.49486 11.08169 1025 ft 2 kts 188°
2026-05-07 13:39 49.49500 11.08172 1026 ft 2 kts 188°
2026-05-07 13:40 49.49514 11.08175 1027 ft 2 kts 175°
2026-05-07 13:40 49.49528 11.08172 1027 ft 2 kts 162°
2026-05-07 13:40 49.49541 11.08164 1026 ft 2 kts 136°
2026-05-07 13:40 49.49549 11.08150 1028 ft 0 kts 110°
2026-05-07 13:43 49.49548 11.08155 1025 ft 2 kts 109°
2026-05-07 13:44 49.49542 11.08216 1028 ft 8 kts 98°
2026-05-07 13:44 49.49535 11.08300 1029 ft 8 kts 88°
2026-05-07 13:44 49.49562 11.08350 1031 ft 5 kts 23°
2026-05-07 13:44 49.49589 11.08359 1032 ft 3 kts 14°
2026-05-07 13:45 49.49609 11.08379 1033 ft 4 kts 47°
2026-05-07 13:45 49.49614 11.08428 1034 ft 5 kts 97°
2026-05-07 13:45 49.49610 11.08488 1035 ft 6 kts 98°
2026-05-07 13:45 49.49600 11.08592 1036 ft 14 kts 98°
2026-05-07 13:46 49.49583 11.08764 1037 ft 16 kts 99°
2026-05-07 13:46 49.49566 11.08934 1038 ft 16 kts 98°
2026-05-07 13:46 49.49550 11.09095 1041 ft 14 kts 98°
2026-05-07 13:46 49.49536 11.09237 1043 ft 13 kts 98°
2026-05-07 13:47 49.49533 11.09358 1046 ft 10 kts 72°
2026-05-07 13:47 49.49567 11.09438 1048 ft 8 kts 53°
2026-05-07 13:47 49.49594 11.09496 1050 ft 6 kts 54°
2026-05-07 13:47 49.49604 11.09516 1050 ft 0 kts 54°
2026-05-07 13:48 49.49607 11.09522 1050 ft 2 kts 54°
2026-05-07 13:48 49.49614 11.09537 1051 ft 2 kts 53°
2026-05-07 13:48 49.49637 11.09565 1052 ft 6 kts 26°
2026-05-07 13:48 49.49687 11.09571 1053 ft 7 kts 339°
2026-05-07 13:49 49.49700 11.09528 1052 ft 0 kts 276°
2026-05-07 13:49 49.49702 11.09508 1052 ft 4 kts 276°
2026-05-07 13:49 49.49713 11.09397 1050 ft 26 kts 279°
2026-05-07 13:50 49.49782 11.08694 1040 ft 103 kts 278°
2026-05-07 13:50 49.49921 11.07294 1088 ft 154 kts 279°
2026-05-07 13:50 49.50080 11.05699 1824 ft 150 kts 278°
2026-05-07 13:50 49.50236 11.04070 2403 ft 164 kts 279°
2026-05-07 13:51 49.50411 11.02245 2851 ft 185 kts 279°
2026-05-07 13:51 49.50618 11.00185 3306 ft 205 kts 279°
2026-05-07 13:51 49.50853 10.97857 3697 ft 235 kts 279°
2026-05-07 13:51 49.51119 10.95294 4493 ft 247 kts 281°
2026-05-07 13:52 49.51852 10.92879 5410 ft 259 kts 311°
2026-05-07 13:52 49.53441 10.91530 6403 ft 270 kts 346°
2026-05-07 13:52 49.55331 10.91541 7441 ft 275 kts
2026-05-07 13:52 49.57250 10.91871 8437 ft 279 kts
2026-05-07 13:53 49.59165 10.92234 9394 ft 283 kts
2026-05-07 13:53 49.61142 10.92518 10301 ft 287 kts
2026-05-07 13:53 49.63153 10.92720 11094 ft 296 kts
2026-05-07 13:53 49.65291 10.92856 11430 ft 319 kts 359°
2026-05-07 13:54 49.67569 10.93097 11902 ft 339 kts
2026-05-07 13:54 49.69812 10.94505 12357 ft 360 kts 31°
2026-05-07 13:54 49.71882 10.96859 12665 ft 380 kts 35°
2026-05-07 13:54 49.74047 10.99401 12825 ft 401 kts 36°
2026-05-07 13:55 49.76294 11.02069 13083 ft 411 kts 36°
2026-05-07 13:55 49.78567 11.04780 13347 ft 415 kts 36°
2026-05-07 13:55 49.80899 11.07514 13617 ft 424 kts 33°
2026-05-07 13:55 49.83480 11.09552 13867 ft 423 kts 19°
2026-05-07 13:56 49.86247 11.11082 14100 ft 422 kts 18°
2026-05-07 13:56 49.89019 11.12592 14344 ft 422 kts 17°
2026-05-07 13:56 49.91787 11.14088 14683 ft 421 kts 17°
2026-05-07 13:56 49.94548 11.15582 15023 ft 420 kts 18°
2026-05-07 13:57 49.97311 11.17081 15375 ft 420 kts 18°
2026-05-07 13:57 50.00062 11.18577 15723 ft 418 kts 18°
2026-05-07 13:57 50.02809 11.20070 16082 ft 417 kts 18°
2026-05-07 13:57 50.05512 11.21541 16437 ft 417 kts 17°
2026-05-07 13:58 50.08322 11.22513 16801 ft 414 kts
2026-05-07 13:58 50.11199 11.22660 17169 ft 412 kts 359°
2026-05-07 13:58 50.14065 11.22669 17542 ft 412 kts 359°
2026-05-07 13:58 50.16937 11.22680 17931 ft 416 kts 359°
2026-05-07 13:59 50.19857 11.22697 18359 ft 423 kts 359°
2026-05-07 13:59 50.22824 11.22717 18736 ft 429 kts 359°
2026-05-07 13:59 50.25820 11.22737 19129 ft 433 kts 359°
2026-05-07 13:59 50.28858 11.22761 19523 ft 437 kts 359°
2026-05-07 14:00 50.31909 11.22785 19922 ft 440 kts 359°
2026-05-07 14:00 50.34933 11.22804 20315 ft 440 kts 359°
2026-05-07 14:00 50.37984 11.22523 20720 ft 439 kts 354°
2026-05-07 14:00 50.41017 11.22060 21131 ft 437 kts 354°
2026-05-07 14:01 50.44041 11.21602 21553 ft 436 kts 354°
2026-05-07 14:01 50.47054 11.21148 21988 ft 434 kts 354°
2026-05-07 14:01 50.50054 11.20697 22416 ft 433 kts 354°
2026-05-07 14:01 50.53046 11.20247 22858 ft 432 kts 354°
2026-05-07 14:02 50.55996 11.19803 23293 ft 430 kts 354°
2026-05-07 14:02 50.58972 11.19353 23713 ft 429 kts 354°
2026-05-07 14:02 50.61937 11.18906 24087 ft 428 kts 355°
2026-05-07 14:02 50.64904 11.18455 24476 ft 428 kts 355°
2026-05-07 14:03 50.67863 11.18002 24870 ft 427 kts 355°
2026-05-07 14:03 50.70814 11.17548 25266 ft 426 kts 355°
2026-05-07 14:03 50.73762 11.17096 25669 ft 425 kts 355°
2026-05-07 14:03 50.76708 11.16645 26083 ft 424 kts 355°
2026-05-07 14:04 50.79644 11.16195 26499 ft 424 kts 355°
2026-05-07 14:04 50.82544 11.15752 26901 ft 423 kts 355°
2026-05-07 14:04 50.85472 11.15305 27332 ft 423 kts 355°
2026-05-07 14:04 50.88394 11.14860 27767 ft 422 kts 355°
2026-05-07 14:05 50.91321 11.14411 28207 ft 421 kts 356°
2026-05-07 14:05 50.94238 11.13959 28653 ft 421 kts 356°
2026-05-07 14:05 50.97163 11.13507 29102 ft 424 kts 356°
2026-05-07 14:05 51.00077 11.12715 29548 ft 429 kts 345°
2026-05-07 14:06 51.02944 11.11290 29936 ft 433 kts 344°
2026-05-07 14:06 51.05837 11.09816 30050 ft 442 kts 344°
2026-05-07 14:06 51.08760 11.08313 30054 ft 452 kts 343°
2026-05-07 14:07 51.14873 11.05142 30053 ft 470 kts 343°
2026-05-07 14:07 51.21117 11.01903 30042 ft 474 kts 343°
2026-05-07 14:08 51.27399 10.98658 30048 ft 475 kts 343°
2026-05-07 14:08 51.33650 10.95411 30044 ft 476 kts 343°
2026-05-07 14:09 51.40050 10.92910 30045 ft 474 kts 356°
2026-05-07 14:09 51.46632 10.92142 30037 ft 474 kts 357°
2026-05-07 14:10 51.53223 10.91364 30291 ft 477 kts 356°
2026-05-07 14:10 51.56526 10.90969 30656 ft 477 kts 356°
2026-05-07 14:10 51.59840 10.90569 31005 ft 477 kts 356°
2026-05-07 14:10 51.63102 10.90174 31345 ft 477 kts 356°
2026-05-07 14:11 51.66416 10.89774 31720 ft 477 kts 356°
2026-05-07 14:11 51.69727 10.89349 32012 ft 478 kts 355°
2026-05-07 14:11 51.73036 10.88840 32065 ft 477 kts 354°
2026-05-07 14:12 51.79625 10.87654 32065 ft 476 kts 353°
2026-05-07 14:12 51.86216 10.86469 32064 ft 476 kts 354°
2026-05-07 14:13 51.92767 10.85517 32070 ft 476 kts 355°
2026-05-07 14:13 51.99357 10.84666 32071 ft 475 kts 355°
2026-05-07 14:14 52.05949 10.83784 32075 ft 474 kts 355°
2026-05-07 14:14 52.12517 10.82855 32075 ft 474 kts 354°
2026-05-07 14:15 52.19079 10.81919 32075 ft 473 kts 354°
2026-05-07 14:15 52.25632 10.81004 32074 ft 473 kts 354°
2026-05-07 14:16 52.32144 10.80104 32072 ft 473 kts 354°
2026-05-07 14:16 52.38714 10.79752 32069 ft 473 kts
2026-05-07 14:17 52.45270 10.80428 31475 ft 467 kts
2026-05-07 14:17 52.48484 10.80122 30889 ft 458 kts 348°
2026-05-07 14:17 52.51479 10.78587 30315 ft 449 kts 334°
2026-05-07 14:17 52.54119 10.75916 29417 ft 445 kts 319°
2026-05-07 14:18 52.56335 10.72449 28376 ft 446 kts 314°
2026-05-07 14:18 52.58530 10.68842 27746 ft 449 kts 314°
2026-05-07 14:18 52.60746 10.65207 27159 ft 446 kts 314°
2026-05-07 14:18 52.62910 10.61668 26890 ft 430 kts 314°
2026-05-07 14:19 52.64997 10.58267 26758 ft 415 kts 314°
2026-05-07 14:19 52.67014 10.54982 26516 ft 402 kts 314°
2026-05-07 14:19 52.68974 10.51785 26256 ft 391 kts 314°
2026-05-07 14:19 52.70877 10.48667 26003 ft 382 kts 314°
2026-05-07 14:20 52.72719 10.45646 25667 ft 376 kts 314°
2026-05-07 14:20 52.74565 10.42618 25296 ft 372 kts 314°
2026-05-07 14:20 52.76387 10.39625 24916 ft 368 kts 314°
2026-05-07 14:20 52.78187 10.36656 24509 ft 364 kts 314°
2026-05-07 14:21 52.79970 10.33707 24105 ft 361 kts 314°
2026-05-07 14:21 52.81734 10.30794 23705 ft 357 kts 314°
2026-05-07 14:21 52.83489 10.27898 23238 ft 354 kts 314°
2026-05-07 14:21 52.85224 10.25032 22741 ft 352 kts 314°
2026-05-07 14:22 52.86949 10.22176 22244 ft 350 kts 314°
2026-05-07 14:22 52.88646 10.19361 21712 ft 350 kts 314°
2026-05-07 14:22 52.90362 10.16505 21190 ft 350 kts 313°
2026-05-07 14:22 52.92074 10.13652 20678 ft 349 kts 314°
2026-05-07 14:23 52.93787 10.10800 20170 ft 349 kts 314°
2026-05-07 14:23 52.95497 10.07952 19675 ft 348 kts 314°
2026-05-07 14:23 52.97202 10.05105 19178 ft 347 kts 314°
2026-05-07 14:23 52.98900 10.02262 18703 ft 347 kts 314°
2026-05-07 14:24 53.00593 9.99423 18214 ft 346 kts 314°
2026-05-07 14:24 53.02263 9.96621 17673 ft 345 kts 314°
2026-05-07 14:24 53.03942 9.93808 17127 ft 339 kts 314°
2026-05-07 14:24 53.05578 9.91067 16599 ft 330 kts 314°
2026-05-07 14:25 53.07175 9.88391 16083 ft 322 kts 314°
2026-05-07 14:25 53.08736 9.85774 15577 ft 316 kts 314°
2026-05-07 14:25 53.10264 9.83198 15072 ft 310 kts 314°
2026-05-07 14:25 53.11764 9.80665 14584 ft 305 kts 314°
2026-05-07 14:26 53.12747 9.79007 14258 ft 302 kts 314°
2026-05-07 14:26 53.14219 9.76526 13769 ft 298 kts 314°
2026-05-07 14:26 53.15664 9.74085 13229 ft 295 kts 314°
2026-05-07 14:26 53.17554 9.70891 12529 ft 290 kts 314°
2026-05-07 14:27 53.18956 9.68513 12095 ft 286 kts 314°
2026-05-07 14:27 53.19877 9.66948 11834 ft 285 kts 314°
2026-05-07 14:27 53.21271 9.64583 11424 ft 287 kts 314°
2026-05-07 14:27 53.22669 9.62210 11025 ft 287 kts 314°
2026-05-07 14:28 53.24069 9.59824 10626 ft 288 kts 314°
2026-05-07 14:28 53.25464 9.57441 10328 ft 284 kts 314°
2026-05-07 14:28 53.26834 9.55103 10030 ft 281 kts 314°
2026-05-07 14:28 53.28208 9.52761 9584 ft 282 kts 315°
2026-05-07 14:29 53.29643 9.50585 9235 ft 279 kts 321°
2026-05-07 14:29 53.31135 9.48495 8862 ft 277 kts 321°
2026-05-07 14:29 53.32664 9.46539 8341 ft 279 kts 334°
2026-05-07 14:29 53.34483 9.45726 8119 ft 267 kts
2026-05-07 14:30 53.36262 9.46283 7781 ft 259 kts 26°
2026-05-07 14:30 53.37681 9.47995 7419 ft 254 kts 47°
2026-05-07 14:30 53.38825 9.50250 6974 ft 255 kts 52°
2026-05-07 14:30 53.39947 9.52558 6529 ft 256 kts 51°
2026-05-07 14:31 53.41092 9.54847 6053 ft 257 kts 51°
2026-05-07 14:31 53.42248 9.57139 5570 ft 257 kts 51°
2026-05-07 14:31 53.43404 9.59435 5107 ft 258 kts 51°
2026-05-07 14:31 53.44561 9.61740 4646 ft 258 kts 51°
2026-05-07 14:32 53.45715 9.64040 4169 ft 258 kts 51°
2026-05-07 14:32 53.46853 9.66309 3997 ft 246 kts 51°
2026-05-07 14:32 53.47914 9.68424 4004 ft 228 kts 51°
2026-05-07 14:32 53.48899 9.70393 3990 ft 213 kts 51°
2026-05-07 14:33 53.49828 9.72253 3795 ft 209 kts 51°
2026-05-07 14:33 53.50754 9.74106 3536 ft 204 kts 51°
2026-05-07 14:33 53.51642 9.75884 3278 ft 192 kts 51°
2026-05-07 14:33 53.52464 9.77531 3023 ft 176 kts 51°
2026-05-07 14:34 53.53222 9.79051 2794 ft 164 kts 51°
2026-05-07 14:34 53.53907 9.80425 2575 ft 143 kts 52°
2026-05-07 14:34 53.54516 9.81647 2392 ft 131 kts 52°
2026-05-07 14:34 53.55086 9.82793 2201 ft 126 kts 51°
2026-05-07 14:35 53.55647 9.83921 2047 ft 124 kts 52°
2026-05-07 14:35 53.56204 9.85041 1872 ft 125 kts 51°
2026-05-07 14:35 53.56760 9.86160 1700 ft 124 kts 52°
2026-05-07 14:35 53.57313 9.87272 1545 ft 126 kts 51°
2026-05-07 14:36 53.57869 9.88392 1366 ft 125 kts 53°
2026-05-07 14:36 53.58418 9.89497 1193 ft 123 kts 52°
2026-05-07 14:36 53.58968 9.90605 1016 ft 124 kts 52°
2026-05-07 14:36 53.59506 9.91689 854 ft 122 kts 50°
2026-05-07 14:37 53.60053 9.92794 678 ft 123 kts 50°
2026-05-07 14:37 53.61143 9.95015 381 ft 124 kts 50°
2026-05-07 14:37 53.61703 9.96127 180 ft 122 kts 47°
2026-05-07 14:38 53.62238 9.97216 81 ft 120 kts 48°
2026-05-07 14:38 53.62722 9.98199 44 ft 95 kts 49°
2026-05-07 14:38 53.63040 9.98827 46 ft 46 kts 51°
2026-05-07 14:38 53.63143 9.99040 46 ft 15 kts 51°
2026-05-07 14:39 53.63262 9.99288 47 ft 31 kts 57°
2026-05-07 14:39 53.63284 9.99581 44 ft 17 kts 100°
2026-05-07 14:39 53.63276 9.99660 48 ft 0 kts 99°
2026-05-07 14:40 53.63276 9.99663 48 ft 1 kts 99°
2026-05-07 14:40 53.63266 9.99716 47 ft 9 kts 120°
2026-05-07 14:40 53.63186 9.99791 48 ft 18 kts 158°
2026-05-07 14:40 53.63064 9.99899 48 ft 18 kts 153°
2026-05-07 14:41 53.63034 9.99925 48 ft 2 kts 153°
2026-05-07 14:41 53.63014 9.99942 48 ft 4 kts 153°
2026-05-07 14:41 53.62976 9.99974 48 ft 9 kts 153°
2026-05-07 14:41 53.62980 10.00086 48 ft 16 kts 37°
2026-05-07 14:42 53.63056 10.00172 48 ft 15 kts 32°
2026-05-07 14:42 53.63118 10.00198 48 ft 0 kts
2026-05-07 14:42 53.63142 10.00203 48 ft 8 kts 12°
2026-05-07 14:42 53.63165 10.00305 48 ft 14 kts 88°
2026-05-07 14:43 53.63168 10.00377 48 ft 0 kts 86°